Simultaneous Nadir Overpasses (SNOs) Predictions

Prediction of SNOs between AQUA and GOES-15 Satellite Orbit:

Table of predicted SNOs for the next 14.0 days since TLE Epoch: 10/5/2018
Index Date Time (AQUA) AQUA Lat,Lon GOES-15 Lat,Lon Distance(km) Time Diff (sec)
1 10/07/2018 10:38:03 0.29,-135.58 0.28,-135.66 8.45 80
2 10/09/2018 10:25:52 -0.36,-132.63 0.28,-135.65 343.61 80
3 10/09/2018 22:47:17 -0.74,-137.83 -0.26,-135.61 251.89 80
4 10/11/2018 22:35:06 -0.08,-134.88 -0.26,-135.60 83.39 80
5 10/12/2018 10:56:20 1.17,-140.03 0.25,-135.65 498.48 80
6 10/13/2018 22:22:54 0.51,-131.91 -0.27,-135.59 418.04 80
7 10/14/2018 10:44:08 0.58,-137.07 0.25,-135.63 164.19 80
8 10/16/2018 10:31:58 -0.08,-134.12 0.25,-135.61 169.56 80
9 10/16/2018 22:53:22 -1.01,-139.32 -0.22,-135.55 427.87 80
10 10/18/2018 22:41:10 -0.40,-136.36 -0.22,-135.53 94.52 80




NCC Satellite Simultaneous Nadir Overpasses (SNOs) Prediction Service
